Weather in Buzovitsa

Ukraine / Chernovtci District     48°30′04″N   26°55′38″E
temp.,
°C
wind,
m/s
gust,
m/s
humid.,
%
clouds,
%
prec.,
mm/h
press.,
hPa
HPBL,
m
1 march, mon
mon123:00+2wnw71296100 1.0 1025722
02:00+2nnw61097100 3.8 1026595
05:00+2nnw5997100 0.3 1026519
08:00+2n61095100 0.6 1029639
11:00+4n577697 0.1 1031884
14:00+5n567198 0.3 1032938
17:00+4n247067 0.1 1033771
20:00+3nnw377684 0.1 1034313
2 march, tue
tue223:00+3nnw248194 0.0 1034142
02:00+2wnw248392 0.0 1035117
05:000wnw499127 0.0 1033225
08:00+1wnw5118914 0.0 1032379
11:00+5wnw6107153 0.0 1030527
14:00+9wnw7115927 0.0 1028789
17:00+9wnw7135926 0.0 1026789
20:00+6nw6167413 0.0 1027726
3 march, wed
wed323:00+5nw7157719 0.0 1028616
02:00+3nw512879 0.0 1030413
05:00+1nw49944 0.0 1030254
08:00+1nw389513 0.0 1031304
11:00+5nnw46606 0.0 1031684
14:00+8nw45443 0.0 10301018
17:00+7wnw345625 0.0 1028510
20:00+3w227763 0.0 102922
4 march, thu
thu423:00+2ssw22827 0.0 102722
02:00+1ssw33873 0.0 102545
05:00+1s34910 0.0 102285
08:00+2s36910 0.0 1020168
11:00+6wsw34630 0.0 1017314
14:00+10w35478 0.0 1015605
17:00+9w255625 0.0 1013195
20:00+6wsw236712 0.0 101323
5 march, fri
fri523:00+5sw22716 0.0 101322
02:00+4sw127528 0.0 101322
05:00+3ssw2375100 0.0 101124
08:00+4ssw3571100 0.0 101098
11:00+9ssw585597 0.0 1009428
14:00+12wsw7124689 0.0 10081367
17:00+10w41057100 0.0 1008491
20:00+6nw3109187 0.1 1010584